Regional Weather Roundup
Issued by NWS

Home | Current Version | Previous Version | Text Only | Print | Product List | Glossary On
Versions: 1 2 3 4 5 6 7 8 9 10 11 12 13 14 15 16 17 18 19 20 21 22 23 24 25 26 27 28 29 30 31 32 33 34 35 36 37 38 39 40 41 42 43 44 45 46 47 48 49 50
000
ASCA44 KEWX 210520
RWRMX

LATIN AMERICA AND CARIBBEAN REGIONAL WEATHER ROUNDUP
NATIONAL WEATHER SERVICE AUSTIN/SAN ANTONIO TX
1100 PM CST MON NOV 20 2017

NOTE: "FAIR" INDICATED FEW OR NO CLOUDS BELOW 12,000 FEET WITH NO
SIGNIFICANT WEATHER AND/OR OBSTRUCTIONS TO VISIBILITY.

BAJA CALIFORNIA

CITY           SKY/WX    TMP DP  RH WIND       PRES   REMARKS
LA PAZ         CLEAR     70  61  73 CALM      29.98R
MEXICALI       CLEAR     61  30  31 NW5       30.03R
S.J. DEL CABO  CLEAR     70  61  73 SW5       29.97S
TIJUANA        MOCLDY    57  48  72 MISG      30.05R

NORTHWESTERN MEXICO

CITY           SKY/WX    TMP DP  RH WIND       PRES   REMARKS
CULIACAN       CLEAR     72  64  78 CALM      29.92R
HERMOSILLO     PTCLDY    68  50  52 N5        29.99R
LOS MOCHIS     PTCLDY    64  57  77 W6        29.95R

NORTHEASTERN MEXICO

CITY           SKY/WX    TMP DP  RH WIND       PRES   REMARKS
MONCLOVA         N/A    N/A N/A N/A MISG        N/A
MONTERREY      CLEAR     54  48  82 CALM      30.04S
REYNOSA          N/A    N/A N/A N/A MISG        N/A
SALTILLO       CLEAR     48  36  61 CALM      30.17S
CD. VICTORIA     N/A    N/A N/A N/A MISG        N/A

WESTERN MEXICO

CITY           SKY/WX    TMP DP  RH WIND       PRES   REMARKS
AGUASCALIENTES CLEAR     57  36  44 S3        30.23S
COLIMA           N/A    N/A N/A N/A MISG        N/A
DEL BAJIO      CLEAR     55  39  54 CALM      30.26R
GUADALAJARA    CLEAR     63  52  67 CALM      30.19R
MAZATLAN         N/A    N/A N/A N/A MISG        N/A
P. VALLARTA    CLOUDY    79  77  94 NE5       29.91S
URUAPAN          N/A    N/A N/A N/A MISG        N/A
ZACATECAS      CLEAR     52  36  54 MISG      30.26R

CENTRAL MEXICO

CITY           SKY/WX    TMP DP  RH WIND       PRES   REMARKS
CUERNAVACA       N/A    N/A N/A N/A MISG        N/A
MEXICO CITY    PTCLDY    61  36  39 NW3       30.31R
MORELIA        CLEAR     52  46  82 SW5       30.22R
POZA RICA        N/A    N/A N/A N/A MISG        N/A
S. LUIS POTOSI CLEAR     54  39  58 CALM      30.18S
TAMPICO        MOCLDY    70  68  94 CALM      30.03S
TOLUCA         PTCLDY    48  45  87 N6          N/A  WCI  46

SOUTHERN MEXICO

CITY           SKY/WX    TMP DP  RH WIND       PRES   REMARKS
ACAPULCO       PTCLDY    81  77  89 N6        29.89S
B. DE HUATULCO   N/A    N/A N/A N/A MISG        N/A
P. ESCONDIDO   CLEAR     75  72  88 N6        30.00S
VERACRUZ       PTCLDY    66  64  94 W3        30.01F

YUCATAN PENINSULA

CITY           SKY/WX    TMP DP  RH WIND       PRES   REMARKS
CAMPECHE         N/A    N/A N/A N/A MISG        N/A
CANCUN         CLEAR     68  68 100 CALM      29.98F
CHETUMAL       CLEAR     72  70  94 CALM      29.97F
CD. DEL CARMEN PTCLDY   N/A N/A N/A E2        29.98F
COZUMEL        CLEAR     70  66  88 CALM      29.95F
MERIDA         CLEAR     70  66  88 CALM      29.98S
MINATITLAN       N/A    N/A N/A N/A MISG        N/A
TAPACHULA      CLEAR     73  72  94 CALM      29.88S
TUX. GUTIERREZ CLEAR     64  61  88 W3        30.02F

CENTRAL AMERICA

CITY           SKY/WX    TMP DP  RH WIND       PRES   REMARKS
MANAGUA          N/A     75  70  83 SE5       29.86S

CARIBBEAN

CITY           SKY/WX    TMP DP  RH WIND       PRES   REMARKS
ARUBA          PTCLDY    81  75  83 E13       29.80F
CURACAO        PTCLDY    82  75  78 E14       29.83F
KINGSTON       MOCLDY    79  75  89 NW5       29.80F
NASSAU         PTCLDY    75  70  83 E5        30.01F
SAN JUAN       CLEAR     79  79 100 CALM      29.92F
SANTO DOMINGO  PTCLDY    73  72  94 NE5       29.86F
ST. THOMAS       N/A    N/A N/A N/A MISG      29.92

$$





USA.gov is the U.S. government's official web portal to all federal, state and local government web resources and services.